Location: Chattahoochee River National Recreation Area
(34.0022°N, 84.2416°W)
Time: 03:27:39
(UTC-05:00)

Daily predictions for brighter satellites

Satellite Brightness Start Highest point End
(mag) Time Altitude Azimuth Time Altitude Azimuth Time Altitude Azimuth
ATLAS CENTAUR Rocket 3.7 04:47:52 44° WSW 04:51:42 62° S 04:57:01 10° ESE
USA 215 3.1 04:49:41 10° NE 04:56:14 88° SE 04:56:46 78° SW
Cosmos 2278 Rocket 3.5 05:00:57 28° S 05:00:57 28° S 05:03:37 10° S
SL-16 R/B 3.5 05:05:26 28° N 05:05:26 28° N 05:08:02 10° NNE
CENTAUR R/B 3.7 05:12:47 28° N 05:12:47 28° N 05:16:24 10° NNE
Cosmos 1812 3.8 05:17:05 41° ENE 05:17:23 42° E 05:21:03 10° SSE
Cosmos 1238 Rocket 4.0 05:17:54 22° N 05:21:09 62° E 05:27:00 10° SSE
Cosmos 2112 Rocket 4.3 05:23:28 50° N 05:23:28 50° N 05:27:23 10° NNE
NOAA 6 4.2 05:24:25 10° NNE 05:29:33 74° ESE 05:34:40 10° S
Cosmos 2074 Rocket 3.9 05:29:41 10° S 05:35:58 84° W 05:42:16 10° N
Timation 1 Rocket 4.2 05:35:29 40° NW 05:37:42 70° WSW 05:43:39 10° SSE
Lacrosse 5 2.3 05:33:53 10° SSW 05:38:54 62° SE 05:43:57 10° NE
Thor Agena Rocket 3.9 05:44:02 10° SSW 05:48:38 38° W 05:48:38 38° W
Cosmos 2184 Rocket 3.9 05:44:44 10° SSW 05:50:50 66° W 05:56:59 10° N
Cosmos 44 Rocket 3.7 05:45:45 10° SSW 05:50:53 68° ESE 05:56:00 10° NE
SL-08 ROCKET BODY 4.3 05:45:30 10° SSW 05:51:25 60° W 05:57:15 10° N
CSL-04 Rocket 4.5 05:50:20 10° NNE 05:55:47 55° ESE 06:01:08 10° S
Cosmos 1603 3.6 05:54:18 10° SSW 05:59:57 65° WNW 06:05:36 10° NNE
Meteor 1-18 Rocket 4.4 05:54:58 11° NNW 06:00:36 54° W 06:06:20 10° S
SKYMED 2 3.5 05:56:37 10° SSE 06:00:57 89° ENE 06:05:18 10° NNW
BREEZE-M DEB (TANK) 3.9 06:00:12 27° WSW 06:02:32 68° NNW 06:14:48 10° NE
Cosmos 2151 Rocket 4.2 06:00:06 10° SW 06:04:10 33° W 06:08:16 10° NNW
CSL-04 DEB 4.4 06:00:31 10° NNE 06:04:36 87° E 06:08:46 10° SSW
Cosmos 2369 Rocket 3.9 06:00:33 10° N 06:05:33 30° ENE 06:10:30 10° ESE
Cosmos 2154 Rocket 4.0 06:00:04 10° S 06:06:17 83° E 06:12:31 10° N
Gbstr 26 Del rocket 3.4 06:05:09 32° W 06:06:44 46° SW 06:10:35 10° SSE
Cosmos 2056 Rocket 3.8 06:03:26 10° NNW 06:08:35 68° ENE 06:13:38 10° SSE
CRYOSAT 2 4.3 06:05:59 10° S 06:10:47 60° W 06:15:38 10° NNW
DELTA 2 R/B (1) 4.2 06:13:20 22° W 06:16:30 43° SSW 06:21:43 10° SE
Kosmos-1675 3.2 06:15:07 10° SSW 06:17:15 75° ESE 06:23:33 10° NNE
DMSP B5D1-3 4.5 06:12:51 10° S 06:17:59 79° WSW 06:23:10 10° NNW
GPS 2-05 Rocket1 2.8 06:19:34 26° WNW 06:21:25 79° N 06:25:03 10° E
Cosmos 1624 Rocket 4.0 06:17:13 10° NNW 06:22:32 80° WSW 06:27:50 10° SSE
Ariane Rocket 3.0 06:20:40 10° N 06:25:37 58° WNW 06:30:34 10° SSW
Cosmos 1943 3.2 06:20:33 10° SSW 06:26:09 90° W 06:31:50 10° NNE
Cosmos 1371 Rocket 4.1 06:21:41 10° NNW 06:26:53 57° WSW 06:31:59 10° S
Cosmos 1536 Rocket 4.4 06:24:46 12° NNW 06:28:12 30° W 06:32:00 10° SSW
Centaur AC-42 4.3 06:27:31 10° S 06:29:23 13° SSE 06:31:32 10° SE
IDEFIX/ARIANE 42P 4.0 06:24:29 10° NNE 06:29:23 41° E 06:34:16 10° SSE
YAOGAN 1 4.0 06:31:53 10° NNE 06:36:00 42° E 06:40:05 10° S
USA 215 4.2 06:33:26 10° NNE 06:38:41 27° NNW 06:43:56 10° W
Tiangong 2 3.2 06:38:56 11° NW 06:40:44 16° N 06:42:49 10° NE
SL-8 Rocket 4.4 06:35:32 10° S 06:41:46 71° E 06:47:59 10° N
Cosmos 1025 Rocket 3.3 06:37:41 10° N 06:42:04 76° E 06:46:25 10° S
Okean 1 Rocket 3.7 06:39:55 10° SW 06:43:55 33° W 06:47:55 10° NNW
OAO 3 Copernicus 4.3 06:41:52 11° W 06:46:43 81° N 06:51:49 10° E
Abrixas rocket 3.2 06:44:25 10° W 06:47:21 29° NNW 06:50:21 10° NNE
Meteor 1-19 Rocket 4.3 06:42:05 10° NNW 06:47:50 62° W 06:53:28 10° S
Meteor 1-11 Rocket 4.1 06:42:37 10° SSW 06:48:14 45° WNW 06:53:45 10° N
Cosmos 921 Rocket 4.4 06:45:02 10° NW 06:48:22 21° W 06:51:43 10° SW
Cosmos 1544 Rocket 4.2 06:44:38 10° S 06:48:53 59° E 06:53:11 10° NNE
COSMO-SKYMED 1 3.7 06:45:35 10° SSW 06:49:05 24° W 06:52:36 10° NW
CZ-3 R/B 2.3 06:45:43 10° WSW 06:54:03 35° S 06:57:12 10° ESE
Cosmos 1943 Rocket 3.7 06:50:29 10° N 06:55:30 35° ENE 07:00:29 10° SE
Cosmos 2218 Rocket 4.3 06:50:11 10° S 06:56:33 78° E 07:02:58 10° N
Cosmos 1452 Rocket 3.7 06:52:48 10° NNW 06:58:06 81° ENE 07:03:22 10° SSE
Cosmos 44 3.7 06:53:22 10° SW 06:58:36 51° WNW 07:03:44 10° NNE
Okean 1-7 Rocket 4.1 06:55:25 10° NNW 06:59:29 39° W 07:03:33 10° SSW
Okean 2 3.7 06:56:35 10° N 07:00:46 74° E 07:04:53 10° SSE
GRACE-2 3.9 06:59:36 10° N 07:02:20 54° W 07:05:03 10° SSW
GRACE-1 4.0 07:00:02 10° N 07:02:45 52° W 07:05:28 10° SSW
SMAP 3.1 06:58:14 10° N 07:02:55 85° WNW 07:07:34 10° SSW
CZ-2C R/B 2.5 06:58:11 10° N 07:03:22 83° WNW 07:08:25 10° SSW
BREEZE M DEB (TANK) 3.7 06:47:19 10° WNW 07:04:41 76° SW 07:08:11 10° SE
Cosmos 1633 4.2 07:02:43 10° WSW 07:05:00 16° WNW 07:07:18 10° NW
